This is the latest recevied weather packets stored in our database for station/object KD5VOO. If no packets are shown the sender has not sent any weather packets the latest 10 day(s).
| Time | Temp. | Humidity | Pressure | Rain* | Wind** | Luminosity | Snow |
|---|---|---|---|---|---|---|---|
| 1777564175 | 20.56° C | 78% | 1008.8 hPa | 0 mm | - | 80 W/m² | - |
| 1777563871 | 20.56° C | 78% | 1009.2 hPa | 0 mm | - | 60 W/m² | - |
| 1777563567 | 20.56° C | 78% | 1009.5 hPa | 0 mm | - | 48 W/m² | - |
| 1777563267 | 20.56° C | 78% | 1009.9 hPa | 0 mm | - | 38 W/m² | - |
| 1777562964 | 20.56° C | 78% | 1009.9 hPa | 0 mm | - | 43 W/m² | - |
| 1777562660 | 20.56° C | 78% | 1009.9 hPa | 0 mm | - | 47 W/m² | - |
| 1777562360 | 20° C | 78% | 1010.2 hPa | 0 mm | - | 82 W/m² | - |
| 1777562055 | 20° C | 78% | 1009.9 hPa | 0 mm | - | 82 W/m² | - |
| 1777561754 | 20° C | 78% | 1009.9 hPa | 0 mm | - | 70 W/m² | - |
| 1777561449 | 20° C | 78% | 1010.2 hPa | 0 mm | - | 35 W/m² | - |
| 1777561144 | 20° C | 78% | 1010.2 hPa | 0 mm | - | 24 W/m² | - |
| 1777560844 | 20° C | 78% | 1010.2 hPa | 0 mm | - | 29 W/m² | - |
| 1777560542 | 20° C | 78% | 1010.2 hPa | 0 mm | - | 26 W/m² | - |
| 1777560240 | 20° C | 78% | 1010.2 hPa | 0 mm | - | 28 W/m² | - |
| 1777559937 | 20° C | 78% | 1010.2 hPa | 0 mm | - | 36 W/m² | - |
| 1777559631 | 20° C | 78% | 1009.9 hPa | 0 mm | - | 44 W/m² | - |
| 1777559330 | 20° C | 78% | 1009.9 hPa | 0 mm | - | 39 W/m² | - |
| 1777559026 | 20° C | 78% | 1009.9 hPa | 0 mm | - | 25 W/m² | - |
| 1777558721 | 20° C | 78% | 1009.9 hPa | 0 mm | - | 25 W/m² | - |
| 1777558417 | 20° C | 78% | 1009.9 hPa | 0 mm | - | 24 W/m² | - |
| 1777558114 | 20° C | 78% | 1009.9 hPa | 0 mm | - | 18 W/m² | - |
| 1777557811 | 20° C | 78% | 1009.5 hPa | 0 mm | - | 16 W/m² | - |
| 1777557507 | 20° C | 78% | 1009.9 hPa | 0 mm | - | 21 W/m² | - |
| 1777557204 | 20° C | 78% | 1009.5 hPa | 0 mm | - | 22 W/m² | - |
| 1777556900 | 20° C | 78% | 1009.9 hPa | 0 mm | - | 22 W/m² | - |
* Rain latest hour (hover to see other rain measurements)
** Current wind speed in m/s (hover to see current wind gust speed)